Regional Weather Roundup
Issued by NWS Upton, NY

Current Version | Previous Version | Text Only | Print | Product List | Glossary On
Versions: 1 2 3 4 5 6 7 8 9 10 11 12 13 14 15 16 17 18 19 20 21 22 23 24 25 26 27
000
ASUS41 KOKX 040308
RWROKX

REGIONAL WEATHER ROUNDUP
NATIONAL WEATHER SERVICE NEW YORK NY
1000 PM EST SAT DEC 03 2016

NOTE: "FAIR" INDICATES FEW OR NO CLOUDS BELOW 12,000 FEET WITH NO
SIGNIFICANT WEATHER AND/OR OBSTRUCTIONS TO VISIBILITY.

NYZ071-072-176-178-NJZ106-104-040400-
NEW YORK CITY METRO AREA

CITY           SKY/WX    TMP DP  RH WIND       PRES   REMARKS
Central Park   CLOUDY    43  26  51 NW13      30.16R
Wall St Helipt CLOUDY    45  28  51 VRB3      30.15R
Bronx Bot Gard NOT AVBL
LaGuardia APRT MOCLDY    45  30  55 NW17      30.13R
Kennedy INTL   CLOUDY    44  26  49 NW18      30.14R
Breezy Point     N/A     43 N/A N/A NW16G24     N/A
Newark/Liberty CLOUDY    44  25  47 NW25G32   30.14R
Teterboro      CLOUDY    43  26  51 NW10G26   30.13R
$$

NYZ177-179-078>081-040400-
LONG ISLAND NEW YORK

CITY           SKY/WX    TMP DP  RH WIND       PRES   REMARKS
Jones Beach      N/A     43 N/A N/A NW12        N/A
Matinecock PT    N/A     43 N/A N/A NW17G23     N/A
Farmingdale    MOCLDY    41  29  62 NW6       30.12R
MacArthur/ISP  MOCLDY    42  27  55 N8        30.10R
Shirley        CLOUDY    41  28  60 N8        30.11R
Westhampton    MOCLDY    40  25  55 NW18G26   30.11R WCI  31
Southampton    NOT AVBL
Bridgehampton  NOT AVBL
East Hampton   CLOUDY    40  23  52 NW18G26   30.08S WCI  30
Montauk          N/A     41  26  55 NW16G31   30.08R
$$

NYZ052-065-067-040400-
HUDSON VALLEY

CITY           SKY/WX    TMP DP  RH WIND       PRES   REMARKS
White Plains   MOCLDY    41  26  55 NW14      30.09R
Newburgh       MOCLDY    39  27  60 NW12      30.12R WCI  32
Montgomery     CLOUDY    41  26  55 NW14      30.11R
Poughkeepsie   MOCLDY    38  26  62 N3        30.11R
Albany         MOCLDY    36  22  56 NW12      30.13R WCI  28
$$

NJZ001-105-106-008-010-013-015-019>022-104-040400-
NEW JERSEY

CITY           SKY/WX    TMP DP  RH WIND       PRES   REMARKS
Newark/Liberty CLOUDY    44  25  47 NW25G32   30.14R
Teterboro      CLOUDY    43  26  51 NW10G26   30.13R
Caldwell       CLOUDY    42  27  55 NW16G24   30.15R
Somerville     CLOUDY    44  27  51 N15G23    30.14R
Linden         CLOUDY    44  27  52 NW10G20   30.15R
Sussex         CLOUDY    40  27  59 N8G18     30.15R WCI  34
Andover          N/A     40  26  57 N9        30.14R WCI  34
Trenton        CLOUDY    45  27  49 NW12G20   30.15S
Millville      CLOUDY    45  33  63 W7        30.19R
Atlantic City  CLOUDY    45  31  58 W6        30.17S
Wrightstown    NOT AVBL
Toms River     CLOUDY    45  27  49 NW10G16   30.16S
Belmar         CLOUDY   N/A N/A N/A NW14      30.15S
$$

PAZ047>061-062-071-040400-
EASTERN PENNSYLVANIA

CITY           SKY/WX    TMP DP  RH WIND       PRES   REMARKS
Philadelphia   CLOUDY    47  30  51 W14       30.19R
Allentown      CLOUDY    44  25  47 NW20      30.16R
Scranton       CLOUDY    39  27  62 N14G20    30.16R WCI  31
$$

CTZ002-004>006-009-010-012-RIZ004-006-007-MAZ004-011-015-040400-
SOUTHERN NEW ENGLAND
 IN CT

CITY           SKY/WX    TMP DP  RH WIND       PRES   REMARKS
Bradley INTL   MOCLDY    37  20  50 NW10      30.08S WCI  30
Hartford       CLOUDY    39  24  55 N14G21    30.09S WCI  31
Danbury        CLOUDY    38  26  62 CALM      30.11R
Wtrbury/Oxford CLOUDY    37  23  56 N10G20    30.09R WCI  30
Bridgeport     CLOUDY    43  26  51 NW7       30.11R
Meriden        CLOUDY    41  23  48 N14G23    30.09R
New Haven      CLOUDY    41  25  53 N13G21    30.09S
Chester        CLOUDY    39  23  52 N16G26    30.07S WCI  30
Groton         CLEAR     41  24  51 NW12      30.07R
Wilimantic     MOCLDY    38  26  62 NW9G17    30.07F WCI  31

 IN RI

CITY           SKY/WX    TMP DP  RH WIND       PRES   REMARKS
Providence     PTCLDY    37  22  54 NW10      30.04F WCI  30
Block Island   CLEAR     39  27  62 N16G23    30.06R WCI  30
Westerly       CLEAR     38  23  55 VRB6      30.07R WCI  33
 IN MA

CITY           SKY/WX    TMP DP  RH WIND       PRES   REMARKS
Boston         PTCLDY    37  24  59 NW13      30.04S WCI  29
Worcester      PTCLDY    32  20  61 NW9G18    30.02S WCI  24
Westfield      PTCLDY    36  21  54 N13G18    30.07S WCI  27
Provincetown   PTCLDY    40  27  59 NW25G33   30.01R WCI  29
Nantucket      CLEAR     39  24  55 NW26G38   29.98F WCI  28
$$

ANZ330-335-338-340-345-350-353-355-040400-
COASTAL MARINE OBSERVATIONS


STATION/POSITION TIME  SKY/WX   TEMP    WIND        PRES    VSBY  WAVE
                                AIR SEA DIR/SP/G                  HT/PER
                 (UTC)          (F)     (DEG/KT/KT) (MB)    (MI)  (FT/S)
NY HARB ENTRANCE 0150            47 55  320/ 23/ 29 1019.1          4/ 5
20 S FIRE ISLAND 0150            46 53  330/ 23/ 29 1018.7          5/ 5
GREAT SOUTH BAY  0230            42 44                N/A
23 SSW MONTAUK P 0250            43 56  310/ 27/ 33 1018.1          6/ 6
15 E BARNEGAT LI 0230               54                N/A           4/ 5
HUDSON CANYON    0150            49 58              1018.2          9/ 8
KINGS POINT      0242            43 48              1019.8
EXECUTION ROCKS  0245            44     310/ 12/ 16   N/A
CENTRAL LI SOUND 0200            42 51  340/ 14/ 19   N/A           2/ 4
EASTERN LI SOUND NOT AVBL
ROBBINS REEF     0242            44     330/ 19/ 24 1020.6
$$


>>>>>>>>>>>>>>>>>>>>>>>>>>>> KEY <<<<<<<<<<<<<<<<<<<<<<<<<<<
>                                                          <
>     SKY/WX - Sky Condition/Present Weather               <
>     TMP    - Temperature in Fahrenheit                   <
>     DP     - Dew Point in Fahrenheit                     <
>     RH     - Relative Humidity in Percent                <
>     WIND   - Direction (from) and Speed in MPH           <
>     PRES   - Mean Sea Level Pressure (inches of Hg)      <
>     WCI    - Wind Chill Index                            <
>     VSB    - VISIBILITY IN MILES                         <
>     HX     - HEAT INDEX                                  <
>     TC     - TEMPERATURE IN CELSIUS                      <
>     VRB    - VARIABLE WIND DIRECTION                     <
>                                                          <
>>>>>>>>>>>>>>>>>>>>>>>>>>>> KEY <<<<<<<<<<<<<<<<<<<<<<<<<<<




USA.gov is the U.S. government's official web portal to all federal, state and local government web resources and services.